Weather History for Deer Park, WA

Change the Weather History Date:

Sunday, July 14, 2013

  Actual Average Record
Temperature  
Mean Temperature 61 °F 65 °F  
Max Temperature 83 °F 83 °F 98 °F (2007)
Min Temperature 38 °F 48 °F 38 °F (2013)
Degree Days  
Heating Degree Days 4 2  
Month to date heating degree days 18 42  
Since 1 June heating degree days 220 242  
Since 1 July heating degree days 18 42  
Cooling Degree Days 0 2  
Month to date cooling degree days 44 25  
Year to date cooling degree days 63 45  
Since 1 June cooling degree days 60 42  
Growing Degree Days 10 (Base 50)    
Moisture  
Dew Point 42 °F    
Average Humidity 57    
Maximum Humidity 93    
Minimum Humidity 20    
Precipitation  
Precipitation 0.00 in 0.02 in 0.07 in (2002)
Month to date precipitation 0.00 0.59  
Year to date precipitation 9.86 12.29  
Sea Level Pressure  
Sea Level Pressure 30.03 in    
Wind  
Wind Speed 3 mph (SE)    
Max Wind Speed 14 mph    
Max Gust Speed 23 mph    
Visibility 10 miles    
Events      
T = Trace of Precipitation, MM = Missing Value Source: NWS Daily Summary

Daily Weather History Graph

Daily Weather History Graph

Search for Another Location

Airport:

Trip Planner

Search our weather history database for the weather conditions in past years. The results will help you decide how hot, cold, wet, or windy it might be!

Date:

Astronomy

Jul. 14, 2013 Rise Set
Actual Time 5:05 AM PDT 8:45 PM PDT
Civil Twilight 4:25 AM PDT 9:24 PM PDT
Nautical Twilight 3:32 AM PDT 10:17 PM PDT
Astronomical Twilight 2:17 AM PDT 11:31 PM PDT
Moon 12:00 PM PDT (7/14) 11:24 PM PDT (7/14)
Length of Visible Light 16h 58m
Length of Day
15h 39m
Waxing Crescent, 36% of the Moon is Illuminated
Jul 14
Waxing Crescent
Jul 15
First Quarter
Jul 22
Full
Jul 29
Last Quarter
Aug 6
New

Hourly Weather History & Observations

Time (PDT) Temp. Dew Point Humidity Pressure Visibility Wind Dir Wind Speed Gust Speed Precip Events Conditions
12:53 AM 48.9 °F 41.0 °F 74% 30.09 in 10.0 mi Calm Calm - N/A   Clear
1:53 AM 45.0 °F 39.0 °F 80% 30.10 in 10.0 mi Calm Calm - N/A   Clear
2:53 AM 41.0 °F 39.0 °F 93% 30.10 in 10.0 mi Calm Calm - N/A   Clear
3:53 AM 39.9 °F 37.9 °F 93% 30.11 in 10.0 mi Calm Calm - N/A   Clear
4:53 AM 39.9 °F 37.9 °F 93% 30.12 in 10.0 mi Calm Calm - N/A   Clear
5:53 AM 43.0 °F 39.9 °F 89% 30.12 in 10.0 mi Calm Calm - N/A   Clear
6:53 AM 55.9 °F 46.0 °F 69% 30.12 in 10.0 mi NNE 3.5 mph - N/A   Clear
7:53 AM 60.1 °F 46.0 °F 60% 30.12 in 10.0 mi ENE 3.5 mph - N/A   Clear
8:53 AM 64.9 °F 46.0 °F 50% 30.12 in 10.0 mi Calm Calm - N/A   Clear
9:53 AM 66.9 °F 45.0 °F 45% 30.11 in 10.0 mi Calm Calm - N/A   Clear
10:53 AM 72.0 °F 46.0 °F 40% 30.10 in 10.0 mi Variable 3.5 mph - N/A   Clear
11:53 AM 75.9 °F 42.1 °F 30% 30.08 in 10.0 mi South 5.8 mph - N/A   Clear
12:53 PM 78.1 °F 41.0 °F 27% 30.06 in 10.0 mi Calm Calm - N/A   Clear
1:53 PM 80.1 °F 42.1 °F 26% 30.04 in 10.0 mi SSE 11.5 mph - N/A   Clear
2:53 PM 81.0 °F 41.0 °F 24% 30.03 in 10.0 mi ESE 5.8 mph - N/A   Clear
3:53 PM 82.0 °F 39.0 °F 22% 30.00 in 10.0 mi South 4.6 mph - N/A   Clear
4:53 PM 82.9 °F 37.9 °F 20% 29.97 in 10.0 mi Variable 6.9 mph - N/A   Clear
5:53 PM 81.0 °F 42.1 °F 25% 29.94 in 10.0 mi South 9.2 mph - N/A   Clear
6:53 PM 80.1 °F 37.9 °F 22% 29.91 in 10.0 mi SSE 8.1 mph - N/A   Clear
7:53 PM 77.0 °F 42.1 °F 29% 29.90 in 10.0 mi SSE 4.6 mph - N/A   Clear
8:53 PM 62.1 °F 46.0 °F 56% 29.90 in 10.0 mi North - - N/A   Clear
9:53 PM 57.0 °F 43.0 °F 59% 29.91 in 10.0 mi Calm Calm - N/A   Clear
10:53 PM 55.0 °F 42.1 °F 62% 29.90 in 10.0 mi Calm Calm - N/A   Clear
11:53 PM 48.9 °F 41.0 °F 74% 29.91 in 10.0 mi Calm Calm - N/A   Clear